Clinton, IA

8:00 AM CDT on June 24, 2017 (GMT -0500)
Clinton Municipal

Weather History for KCWI - February, 2013

Change the Weather History Date:

Friday, February 1, 2013

  Actual Average Record
Temperature  
Mean Temperature 8 °F -  
Max Temperature 17 °F 32 °F 62 °F (1989)
Min Temperature -2 °F 13 °F -20 °F (1985)
Degree Days  
Heating Degree Days 58    
Moisture  
Dew Point -1 °F    
Average Humidity 69    
Maximum Humidity 79    
Minimum Humidity 56    
Precipitation  
Precipitation 0.00 in - - ()
Sea Level Pressure  
Sea Level Pressure 30.28 in    
Wind  
Wind Speed 11 mph (SW)    
Max Wind Speed 21 mph    
Max Gust Speed 16 mph    
Visibility 10 miles    
Events      
Averages and records for this station are not official NWS values.
T = Trace of Precipitation, MM = Missing Value Source: NWS Daily Summary

Daily Weather History Graph

Daily Weather History Graph

Search for Another Location

Airport or City:

Trip Planner

Search our weather history database for the weather conditions in past years. The results will help you decide how hot, cold, wet, or windy it might be!

Date:

Astronomy

Feb. 01, 2013 Rise Set
Actual Time 7:13 AM CST 5:16 PM CST
Civil Twilight 6:43 AM CST 5:46 PM CST
Nautical Twilight 6:10 AM CST 6:19 PM CST
Astronomical Twilight 5:38 AM CST 6:52 PM CST
Moon 11:31 PM CST (2/1) 9:40 AM CST (2/1)
Length of Visible Light 11h 02m
Length of Day
10h 03m
Waning Gibbous, 70% of the Moon is Illuminated
Feb 1
Waning Gibbous
Feb 3
Last Quarter
Feb 10
New
Feb 17
First Quarter
Feb 25
Full

Hourly Weather History & Observations

Time (CST) Temp. Windchill Dew Point Humidity Pressure Visibility Wind Dir Wind Speed Gust Speed Precip Events Conditions
12:15 AM -0.4 °F -22.8 °F -7.6 °F 72% 30.29 in 10.0 mi WNW 20.7 mph - N/A   Scattered Clouds
9:15 AM -2.2 °F -21.5 °F -9.4 °F 71% 30.40 in 10.0 mi WNW 13.8 mph - N/A   Clear
9:35 AM -2.2 °F -20.7 °F -11.2 °F 66% 30.40 in 10.0 mi West 12.7 mph - N/A   Clear
9:55 AM -2.2 °F -18.9 °F -9.4 °F 71% 30.40 in 10.0 mi WNW 10.4 mph - N/A   Clear
10:15 AM -0.4 °F -16.7 °F -9.4 °F 66% 30.40 in 10.0 mi West 10.4 mph - N/A   Clear
10:35 AM -0.4 °F -17.6 °F -7.6 °F 72% 30.40 in 10.0 mi West 11.5 mph - N/A   Clear
11:15 AM -0.4 °F -16.7 °F -7.6 °F 72% 30.39 in 10.0 mi West 10.4 mph - N/A   Clear
11:35 AM 1.4 °F -15.3 °F -9.4 °F 61% 30.39 in 10.0 mi West 11.5 mph - N/A   Clear
11:55 AM 1.4 °F -13.5 °F -7.6 °F 66% 30.39 in 10.0 mi West 9.2 mph 16.1 mph N/A   Clear
12:15 PM 1.4 °F -15.3 °F -7.6 °F 66% 30.38 in 10.0 mi West 11.5 mph - N/A   Clear
12:35 PM 1.4 °F -13.5 °F -5.8 °F 72% 30.37 in 10.0 mi West 9.2 mph - N/A   Clear
12:55 PM 3.2 °F -11.3 °F -5.8 °F 66% 30.36 in 10.0 mi SW 9.2 mph - N/A   Clear
1:15 PM 3.2 °F -11.3 °F -5.8 °F 66% 30.35 in 10.0 mi SW 9.2 mph - N/A   Clear
1:35 PM 3.2 °F -10.3 °F -4.0 °F 72% 30.34 in 10.0 mi WSW 8.1 mph - N/A   Clear
1:55 PM 3.2 °F -9.1 °F -4.0 °F 72% 30.32 in 10.0 mi WSW 6.9 mph - N/A   Clear
2:15 PM 5.0 °F -8.1 °F -5.8 °F 61% 30.32 in 10.0 mi WSW 8.1 mph - N/A   Clear
2:35 PM 5.0 °F -10.0 °F -2.2 °F 72% 30.31 in 10.0 mi WSW 10.4 mph - N/A   Clear
2:55 PM 6.8 °F -10.0 °F -2.2 °F 67% 30.32 in 10.0 mi WSW 13.8 mph - N/A   Clear
3:15 PM 6.8 °F -8.6 °F -5.8 °F 56% 30.32 in 10.0 mi West 11.5 mph - N/A   Clear
3:35 PM 6.8 °F -9.3 °F -2.2 °F 67% 30.31 in 10.0 mi WSW 12.7 mph - N/A   Scattered Clouds
3:55 PM 6.8 °F -7.8 °F -2.2 °F 67% 30.30 in 10.0 mi WSW 10.4 mph - N/A   Overcast
4:15 PM 6.8 °F -8.6 °F -0.4 °F 72% 30.29 in 10.0 mi WSW 11.5 mph - N/A   Overcast
4:35 PM 8.6 °F -4.7 °F -2.2 °F 62% 30.28 in 10.0 mi WSW 9.2 mph - N/A   Overcast
5:15 PM 8.6 °F -3.7 °F -0.4 °F 67% 30.26 in 10.0 mi SW 8.1 mph - N/A   Overcast
5:35 PM 8.6 °F -6.3 °F -0.4 °F 67% 30.26 in 10.0 mi SSW 11.5 mph - N/A   Mostly Cloudy
5:55 PM 8.6 °F -5.5 °F 1.4 °F 73% 30.25 in 10.0 mi SSW 10.4 mph - N/A   Mostly Cloudy
6:15 PM 8.6 °F -6.3 °F -0.4 °F 67% 30.24 in 10.0 mi SSW 11.5 mph - N/A   Scattered Clouds
6:35 PM 10.4 °F -2.4 °F 1.4 °F 67% 30.23 in 10.0 mi SSW 9.2 mph - N/A   Partly Cloudy
6:55 PM 10.4 °F -4.1 °F 1.4 °F 67% 30.23 in 10.0 mi SSW 11.5 mph - N/A   Partly Cloudy
7:15 PM 10.4 °F -4.1 °F 1.4 °F 67% 30.22 in 10.0 mi SSW 11.5 mph - N/A   Partly Cloudy
7:35 PM 10.4 °F -2.4 °F 1.4 °F 67% 30.21 in 10.0 mi South 9.2 mph - N/A   Mostly Cloudy
7:55 PM 12.2 °F 0.7 °F 3.2 °F 67% 30.20 in 10.0 mi South 8.1 mph - N/A   Mostly Cloudy
8:15 PM 12.2 °F 1.7 °F 5.0 °F 73% 30.20 in 9.0 mi South 6.9 mph - N/A   Mostly Cloudy
8:35 PM 12.2 °F 1.7 °F 3.2 °F 67% 30.19 in 10.0 mi South 6.9 mph - N/A   Mostly Cloudy
8:55 PM 12.2 °F 0.7 °F 5.0 °F 73% 30.18 in 10.0 mi South 8.1 mph - N/A   Mostly Cloudy
9:15 PM 14.0 °F 5.1 °F 6.8 °F 73% 30.17 in 10.0 mi SSE 5.8 mph - N/A   Mostly Cloudy
9:35 PM 14.0 °F 6.5 °F 8.6 °F 79% 30.17 in 10.0 mi SSE 4.6 mph - N/A   Scattered Clouds
9:55 PM 15.8 °F 7.2 °F 8.6 °F 73% 30.17 in 10.0 mi SSE 5.8 mph - N/A   Clear
10:15 PM 15.8 °F 8.6 °F 8.6 °F 73% 30.17 in 8.0 mi SSE 4.6 mph - N/A   Clear
10:35 PM 15.8 °F 8.6 °F 8.6 °F 73% 30.17 in 10.0 mi SSE 4.6 mph - N/A   Partly Cloudy
10:55 PM 15.8 °F 6.1 °F 10.4 °F 79% 30.16 in 9.0 mi South 6.9 mph - N/A   Mostly Cloudy
11:15 PM 17.6 °F 8.2 °F 10.4 °F 73% 30.15 in 9.0 mi South 6.9 mph - N/A   Partly Cloudy
11:35 PM 17.6 °F 6.4 °F 10.4 °F 73% 30.14 in 10.0 mi South 9.2 mph - N/A   Scattered Clouds
11:55 PM 17.6 °F 7.3 °F 12.2 °F 79% 30.13 in 10.0 mi South 8.1 mph - N/A   Mostly Cloudy